Voltar ao catálogo

STARLINK-37652

AtivoComunicaçõesVLEO
NORAD 69354·PAYLOAD·🇺🇸 United States

Lançado Jun 4, 2026 de Cape Canaveral Space Force Station

Loading…

Próximas Passagens (próximas 24 horas)

TLE

AtualizadoSource: CelesTrak SupGP

Época: Sep 14, 2026, 15:03 UTC

1 69354C 26123B   26257.62756944  .00069129  00000+0  19780-2 0  2576
2 69354  53.1579 170.1208 0001249  94.6313 324.7732 15.35361982    12

Acompanhe STARLINK-37652 em tempo real com AllMySat

Download on the App Store